Location: Unspecified
(49.2170°N, 0.0000°E)
Time: 12:39:16
(UTC+00:00)

Vanguard 1 - Pass Details

Date: 27 June 2021
Orbit: 651 x 3832 km, 34.2° (Epoch: 23 July)

Event Time Altitude Azimuth Distance (km) Brightness Sun altitude
Rises 02:39:49 0° 278° (W) 7,404 14.3 -9.5°
Reaches altitude 10° 02:49:45 10° 255° (WSW) 5,625 13.4 -8.5°
Maximum altitude 02:54:51 12° 236° (WSW) 4,945 13.0 -8.0°
Drops below altitude 10° 02:59:15 10° 217° (SW) 4,656 12.8 -7.6°
Sets 03:05:26 0° 189° (S) 4,914 13.1 -6.9°
